| time (UTC) | temp C | wind direction | speed KPH | gust KPH | rain 1hr cm | rain 24hr cm | rain mn cm | humidity % | barometer mb |
| 20260506050553 | 14 | 352 | 0.0 | 6.4 | 0.00 | 6.50 | 0.08 | 85 | 1010.2 |
| 20260506045045 | 14 | 228 | 1.6 | 6.4 | 0.00 | 6.53 | 0.08 | 84 | 1010.5 |
| 20260506044044 | 14 | 23 | 0.0 | 6.4 | 0.00 | 6.53 | 0.08 | 85 | 1010.2 |
| 20260506043543 | 14 | 286 | 0.0 | 6.4 | 0.00 | 6.53 | 0.08 | 85 | 1010.3 |
| 20260506042031 | 14 | 295 | 0.0 | 6.4 | 0.00 | 6.58 | 0.08 | 86 | 1010.3 |
| 20260506041530 | 14 | 186 | 0.0 | 9.7 | 0.00 | 6.60 | 0.08 | 85 | 1010.3 |
| 20260506041032 | 14 | 69 | 3.2 | 9.7 | 0.00 | 6.65 | 0.08 | 87 | 1010.3 |
| 20260506040518 | 14 | 105 | 3.2 | 6.4 | 0.00 | 6.65 | 0.08 | 87 | 1010.3 |
| 20260506040018 | 14 | 250 | 0.0 | 1.6 | 0.00 | 6.68 | 0.08 | 88 | 1010.5 |
| 20260506035517 | 14 | 266 | 1.6 | 3.2 | 0.00 | 6.68 | 0.08 | 87 | 1010.6 |
| 20260506034953 | 14 | 274 | 3.2 | 3.2 | 0.00 | 6.68 | 0.08 | 86 | 1010.6 |
| 20260506034456 | 14 | 271 | 1.6 | 3.2 | 0.00 | 6.68 | 0.08 | 86 | 1010.5 |
| 20260506033956 | 15 | 151 | 0.0 | 3.2 | 0.00 | 6.68 | 0.08 | 86 | 1010.6 |
| 20260506033455 | 15 | 152 | 1.6 | 3.2 | 0.00 | 6.68 | 0.08 | 86 | 1010.5 |
| 20260506032956 | 15 | 137 | 0.0 | 6.4 | 0.00 | 6.71 | 0.08 | 86 | 1010.4 |
| 20260506032443 | 15 | 159 | 0.0 | 6.4 | 0.00 | 6.71 | 0.08 | 86 | 1010.5 |
| 20260506031944 | 15 | 245 | 0.0 | 3.2 | 0.00 | 6.71 | 0.08 | 87 | 1010.6 |
| 20260506031442 | 15 | 233 | 0.0 | 3.2 | 0.00 | 6.71 | 0.08 | 87 | 1010.7 |
| 20260506030917 | 15 | 242 | 0.0 | 3.2 | 0.00 | 6.71 | 0.08 | 86 | 1010.7 |
| 20260506025919 | 15 | 113 | 1.6 | 9.7 | 0.00 | 6.71 | 0.08 | 87 | 1010.6 |
| 20260506025406 | 15 | 157 | 3.2 | 9.7 | 0.00 | 6.71 | 0.08 | 89 | 1010.5 |
| 20260506024907 | 15 | 100 | 1.6 | 9.7 | 0.03 | 6.71 | 0.08 | 90 | 1010.5 |
| 20260506024406 | 15 | 102 | 3.2 | 9.7 | 0.03 | 6.73 | 0.08 | 90 | 1010.5 |
| 20260506023854 | 15 | 312 | 1.6 | 9.7 | 0.03 | 6.76 | 0.08 | 90 | 1010.6 |
| 20260506023355 | 15 | 65 | 1.6 | 9.7 | 0.03 | 6.78 | 0.08 | 89 | 1010.7 |
| 20260506022855 | 15 | 211 | 0.0 | 6.4 | 0.03 | 6.78 | 0.08 | 90 | 1010.8 |
| 20260506022354 | 15 | 129 | 0.0 | 6.4 | 0.03 | 6.83 | 0.08 | 89 | 1010.6 |
| 20260506021356 | 15 | 222 | 0.0 | 3.2 | 0.03 | 6.86 | 0.08 | 90 | 1010.5 |
| 20260506020857 | 15 | 192 | 1.6 | 3.2 | 0.03 | 6.88 | 0.08 | 90 | 1010.5 |
| 20260506020356 | 15 | 247 | 0.0 | 3.2 | 0.03 | 6.91 | 0.08 | 91 | 1010.8 |
| 20260506015856 | 15 | 277 | 0.0 | 11.3 | 0.03 | 6.93 | 0.08 | 90 | 1010.8 |
| 20260506015357 | 15 | 348 | 6.4 | 11.3 | 0.03 | 6.93 | 0.08 | 90 | 1010.6 |
| 20260506014855 | 15 | 123 | 1.6 | 4.8 | 0.00 | 6.91 | 0.05 | 90 | 1010.6 |
| 20260506014344 | 15 | 118 | 1.6 | 4.8 | 0.00 | 6.93 | 0.05 | 90 | 1010.2 |
| 20260506013842 | 15 | 179 | 0.0 | 3.2 | 0.00 | 6.93 | 0.05 | 90 | 1010.4 |
| 20260506012842 | 15 | 30 | 1.6 | 6.4 | 0.00 | 6.96 | 0.05 | 90 | 1010.7 |
| 20260506012343 | 15 | 314 | 1.6 | 9.7 | 0.00 | 6.99 | 0.05 | 91 | 1010.7 |
| 20260506010841 | 15 | 87 | 0.0 | 4.8 | 0.00 | 7.04 | 0.05 | 91 | 1011.0 |
| 20260506010346 | 15 | 278 | 0.0 | 3.2 | 0.00 | 7.04 | 0.05 | 91 | 1011.2 |
| 20260506005344 | 15 | 32 | 0.0 | 3.2 | 0.00 | 7.06 | 0.05 | 91 | 1011.2 |
| 20260506004843 | 15 | 87 | 0.0 | 4.8 | 0.00 | 7.06 | 0.05 | 91 | 1011.2 |
| 20260506004342 | 15 | 251 | 0.0 | 4.8 | 0.00 | 7.06 | 0.05 | 91 | 1011.1 |
| 20260506003843 | 15 | 116 | 0.0 | 4.8 | 0.00 | 7.06 | 0.05 | 91 | 1011.2 |
| 20260506003344 | 15 | 176 | 1.6 | 6.4 | 0.00 | 7.06 | 0.05 | 92 | 1011.2 |
| 20260506002843 | 15 | 115 | 0.0 | 6.4 | 0.00 | 7.06 | 0.05 | 91 | 1011.1 |
| 20260506002343 | 15 | 255 | 0.0 | 4.8 | 0.00 | 7.06 | 0.05 | 92 | 1011.3 |
| 20260506001845 | 15 | 143 | 0.0 | 4.8 | 0.00 | 7.06 | 0.05 | 92 | 1011.1 |
| 20260506000843 | 15 | 125 | 0.0 | 4.8 | 0.00 | 7.06 | 0.05 | 93 | 1011.2 |
| 20260506000347 | 15 | 88 | 0.0 | 3.2 | 0.00 | 7.06 | 0.05 | 93 | 1011.4 |
| 20260505235844 | 15 | 259 | 1.6 | 3.2 | 0.00 | 7.06 | 0.05 | 93 | 1011.6 |
| 20260505235343 | 15 | 141 | 0.0 | 3.2 | 0.00 | 7.06 | 0.05 | 93 | 1011.6 |
| 20260505234846 | 15 | 298 | 0.0 | 6.4 | 0.00 | 7.06 | 0.05 | 93 | 1011.6 |
| 20260505234342 | 15 | 170 | 1.6 | 6.4 | 0.00 | 7.06 | 0.05 | 93 | 1011.8 |
| 20260505233844 | 15 | 109 | 0.0 | 6.4 | 0.00 | 7.06 | 0.05 | 94 | 1011.8 |
| 20260505233347 | 15 | 286 | 0.0 | 4.8 | 0.00 | 7.06 | 0.05 | 94 | 1011.8 |
| 20260505232843 | 15 | 309 | 1.6 | 4.8 | 0.03 | 7.06 | 0.05 | 94 | 1011.9 |
| 20260505232343 | 15 | 255 | 0.0 | 0.0 | 0.03 | 7.06 | 0.05 | 94 | 1012.0 |
| 20260505231845 | 15 | 255 | 0.0 | 1.6 | 0.03 | 7.06 | 0.05 | 94 | 1012.3 |
| 20260505231343 | 15 | 255 | 0.0 | 3.2 | 0.05 | 7.06 | 0.05 | 94 | 1012.3 |
| 20260505230843 | 15 | 204 | 0.0 | 3.2 | 0.05 | 7.06 | 0.05 | 94 | 1012.1 |
| 20260505230347 | 15 | 345 | 0.0 | 1.6 | 0.05 | 7.06 | 0.05 | 94 | 1012.2 |
| 20260505225843 | 15 | 349 | 0.0 | 3.2 | 0.08 | 7.06 | 0.05 | 94 | 1012.0 |
| 20260505225343 | 15 | 17 | 0.0 | 3.2 | 0.08 | 7.06 | 0.05 | 94 | 1012.2 |
| 20260505224846 | 15 | 110 | 3.2 | 6.4 | 0.08 | 7.06 | 0.05 | 93 | 1012.0 |
| 20260505224342 | 15 | 142 | 0.0 | 6.4 | 0.08 | 7.06 | 0.05 | 93 | 1012.1 |
| 20260505223842 | 15 | 152 | 3.2 | 4.8 | 0.08 | 7.06 | 0.05 | 94 | 1012.4 |
| 20260505222820 | 15 | 277 | 0.0 | 1.6 | 0.05 | 7.04 | 0.05 | 94 | 1012.2 |
| 20260505222318 | 14 | 109 | 0.0 | 1.6 | 0.05 | 7.04 | 0.03 | 95 | 1012.5 |
| 20260505221808 | 14 | 251 | 0.0 | 3.2 | 0.05 | 7.04 | 0.03 | 95 | 1012.4 |
| 20260505221307 | 14 | 340 | 0.0 | 3.2 | 0.03 | 7.01 | 0.00 | 95 | 1012.4 |
| 20260505220807 | 13 | 284 | 0.0 | 1.6 | 0.03 | 7.01 | 0.00 | 94 | 1012.4 |
| 20260505220256 | 13 | 151 | 0.0 | 0.0 | 0.03 | 7.01 | 0.00 | 94 | 1012.5 |
| 20260505215755 | 13 | 151 | 0.0 | 0.0 | 0.00 | 6.99 | 6.99 | 94 | 1012.6 |
| 20260505215256 | 13 | 151 | 0.0 | 1.6 | 0.00 | 6.99 | 6.99 | 94 | 1012.7 |
| 20260505214756 | 13 | 150 | 0.0 | 1.6 | 0.00 | 6.99 | 6.99 | 94 | 1012.7 |
| 20260505214254 | 13 | 138 | 0.0 | 0.0 | 0.00 | 6.99 | 6.99 | 94 | 1013.0 |
| 20260505213757 | 13 | 138 | 0.0 | 0.0 | 0.00 | 6.99 | 6.99 | 94 | 1013.0 |
| 20260505213255 | 13 | 138 | 0.0 | 0.0 | 0.00 | 6.99 | 6.99 | 93 | 1013.1 |
| 20260505212257 | 13 | 138 | 0.0 | 1.6 | 0.00 | 6.99 | 6.99 | 93 | 1013.0 |
| 20260505211753 | 13 | 116 | 0.0 | 0.0 | 0.00 | 6.99 | 6.99 | 93 | 1013.1 |
| 20260505211254 | 13 | 116 | 0.0 | 0.0 | 0.00 | 6.99 | 6.99 | 93 | 1013.1 |
| 20260505210756 | 13 | 116 | 0.0 | 0.0 | 0.00 | 6.99 | 6.99 | 93 | 1013.3 |
| 20260505210254 | 13 | 116 | 0.0 | 0.0 | 0.00 | 6.99 | 6.99 | 93 | 1013.3 |
| 20260505205755 | 13 | 116 | 0.0 | 0.0 | 0.00 | 6.99 | 6.99 | 93 | 1013.2 |
| 20260505205308 | 13 | 116 | 0.0 | 0.0 | 0.00 | 6.99 | 6.99 | 93 | 1013.3 |
| 20260505204754 | 13 | 116 | 0.0 | 0.0 | 0.00 | 6.99 | 6.99 | 93 | 1013.3 |
| 20260505204258 | 13 | 116 | 0.0 | 3.2 | 0.00 | 6.99 | 6.99 | 92 | 1013.3 |
| 20260505203759 | 13 | 116 | 0.0 | 3.2 | 0.00 | 6.99 | 6.99 | 92 | 1013.4 |
| 20260505203257 | 13 | 178 | 0.0 | 1.6 | 0.00 | 6.99 | 6.99 | 92 | 1013.4 |
| 20260505202755 | 13 | 166 | 0.0 | 1.6 | 0.03 | 6.99 | 6.99 | 92 | 1013.3 |
| 20260505202259 | 13 | 167 | 0.0 | 1.6 | 0.05 | 6.99 | 6.99 | 92 | 1013.3 |
| 20260505201755 | 13 | 165 | 0.0 | 1.6 | 0.08 | 6.99 | 6.99 | 92 | 1013.2 |
| 20260505201256 | 13 | 163 | 0.0 | 3.2 | 0.10 | 6.99 | 6.99 | 91 | 1013.0 |
| 20260505200759 | 13 | 187 | 1.6 | 3.2 | 0.13 | 6.99 | 6.99 | 92 | 1013.0 |
| 20260505200254 | 14 | 162 | 0.0 | 3.2 | 0.15 | 6.99 | 6.99 | 92 | 1013.2 |
| 20260505195754 | 14 | 169 | 0.0 | 3.2 | 0.20 | 6.99 | 6.99 | 92 | 1013.3 |
| 20260505195256 | 13 | 207 | 1.6 | 3.2 | 0.23 | 6.99 | 6.99 | 92 | 1013.2 |
| 20260505194255 | 13 | 204 | 0.0 | 4.8 | 0.25 | 6.99 | 6.99 | 92 | 1013.3 |
| 20260505193759 | 13 | 197 | 1.6 | 4.8 | 0.30 | 6.99 | 6.99 | 92 | 1013.1 |
| 20260505193255 | 13 | 144 | 0.0 | 3.2 | 0.33 | 6.99 | 6.99 | 92 | 1013.1 |
| 20260505192747 | 13 | 164 | 0.0 | 3.2 | 0.33 | 6.96 | 6.96 | 92 | 1013.0 |
| 20260505192243 | 13 | 168 | 0.0 | 3.2 | 0.33 | 6.93 | 6.96 | 92 | 1013.2 |
| 20260505191744 | 14 | 176 | 0.0 | 3.2 | 0.36 | 6.91 | 6.93 | 92 | 1013.1 |
| 20260505191245 | 14 | 162 | 0.0 | 4.8 | 0.36 | 6.88 | 6.88 | 92 | 1013.0 |
| 20260505190744 | 14 | 137 | 1.6 | 4.8 | 0.41 | 6.86 | 6.86 | 92 | 1012.9 |
| 20260505185748 | 14 | 128 | 0.0 | 6.4 | 0.41 | 6.78 | 6.78 | 94 | 1012.8 |
| 20260505185244 | 14 | 92 | 1.6 | 4.8 | 0.38 | 6.76 | 6.76 | 94 | 1012.8 |
| 20260505184743 | 15 | 152 | 0.0 | 1.6 | 0.36 | 6.73 | 6.73 | 95 | 1013.1 |
| 20260505183241 | 15 | 132 | 0.0 | 3.2 | 0.28 | 6.65 | 6.65 | 95 | 1012.8 |
| 20260505182747 | 14 | 135 | 0.0 | 3.2 | 0.25 | 6.63 | 6.63 | 95 | 1012.6 |
| 20260505182243 | 14 | 171 | 0.0 | 3.2 | 0.23 | 6.60 | 6.60 | 95 | 1012.6 |
| 20260505181744 | 14 | 185 | 0.0 | 3.2 | 0.18 | 6.55 | 6.55 | 95 | 1012.4 |
| 20260505181245 | 15 | 133 | 0.0 | 3.2 | 0.18 | 6.53 | 6.53 | 95 | 1012.4 |
| 20260505180743 | 15 | 144 | 0.0 | 1.6 | 0.10 | 6.45 | 6.48 | 95 | 1012.3 |
| 20260505180242 | 15 | 134 | 0.0 | 1.6 | 0.13 | 6.43 | 6.43 | 95 | 1012.6 |
| 20260505175744 | 15 | 153 | 0.0 | 0.0 | 0.18 | 6.38 | 6.40 | 95 | 1012.3 |
| 20260505175241 | 15 | 153 | 0.0 | 0.0 | 0.20 | 6.38 | 6.38 | 95 | 1012.3 |
| 20260505174745 | 15 | 153 | 0.0 | 0.0 | 0.28 | 6.38 | 6.38 | 95 | 1012.3 |
| 20260505174246 | 15 | 151 | 0.0 | 0.0 | 0.43 | 6.38 | 6.38 | 94 | 1012.2 |
| 20260505173745 | 15 | 151 | 0.0 | 0.0 | 0.46 | 6.38 | 6.38 | 95 | 1012.5 |
| 20260505173243 | 15 | 151 | 0.0 | 0.0 | 0.69 | 6.38 | 6.38 | 95 | 1012.2 |
| 20260505172744 | 15 | 149 | 0.0 | 1.6 | 0.91 | 6.38 | 6.38 | 94 | 1012.4 |
| 20260505172242 | 15 | 149 | 0.0 | 1.6 | 1.07 | 6.38 | 6.38 | 94 | 1012.1 |
| 20260505171742 | 15 | 153 | 0.0 | 1.6 | 1.30 | 6.38 | 6.38 | 94 | 1012.2 |
| 20260505171229 | 15 | 154 | 0.0 | 1.6 | 1.68 | 6.35 | 6.35 | 94 | 1012.2 |
| 20260505170730 | 15 | 155 | 0.0 | 1.6 | 2.24 | 6.35 | 6.35 | 94 | 1012.3 |
| 20260505170231 | 15 | 154 | 0.0 | 1.6 | 2.74 | 6.30 | 6.32 | 94 | 1012.3 |
| 20260505165718 | 15 | 117 | 0.0 | 3.2 | 3.00 | 6.20 | 6.20 | 94 | 1012.5 |
| 20260505165220 | 15 | 117 | 0.0 | 3.2 | 3.15 | 6.17 | 6.17 | 94 | 1012.4 |
| 20260505164715 | 15 | 125 | 0.0 | 6.4 | 3.38 | 6.10 | 6.10 | 94 | 1012.5 |
| 20260505164207 | 15 | 264 | 3.2 | 6.4 | 3.84 | 5.94 | 5.94 | 94 | 1012.3 |
| 20260505163706 | 15 | 128 | 3.2 | 4.8 | 4.09 | 5.89 | 5.89 | 94 | 1012.2 |
| 20260505163205 | 15 | 322 | 0.0 | 4.8 | 4.09 | 5.64 | 5.69 | 94 | 1012.5 |
| 20260505162656 | 15 | 320 | 3.2 | 4.8 | 4.37 | 5.44 | 5.44 | 94 | 1012.3 |
| 20260505162153 | 15 | 326 | 1.6 | 3.2 | 4.42 | 5.26 | 5.28 | 94 | 1012.4 |
| 20260505161657 | 15 | 316 | 0.0 | 6.4 | 4.19 | 5.03 | 5.05 | 94 | 1012.3 |
| 20260505161154 | 15 | 311 | 1.6 | 6.4 | 3.68 | 4.50 | 4.62 | 94 | 1012.6 |
| 20260505160655 | 15 | 290 | 0.0 | 6.4 | 3.20 | 4.01 | 4.09 | 93 | 1012.5 |
| 20260505160156 | 15 | 303 | 0.0 | 6.4 | 2.64 | 3.45 | 3.51 | 93 | 1012.3 |
| 20260505153153 | 16 | 325 | 6.4 | 9.7 | 0.76 | 1.55 | 1.55 | 90 | 1011.9 |
| 20260505152654 | 16 | 331 | 4.8 | 6.4 | 0.28 | 1.07 | 1.09 | 88 | 1011.8 |
| 20260505151647 | 17 | 322 | 0.0 | 0.0 | 0.08 | 0.84 | 0.84 | 89 | 1011.7 |
| 20260505151142 | 17 | 322 | 0.0 | 3.2 | 0.05 | 0.81 | 0.81 | 87 | 1011.4 |
| 20260505150641 | 17 | 285 | 0.0 | 4.8 | 0.05 | 0.81 | 0.81 | 87 | 1011.6 |
| 20260505150142 | 17 | 311 | 0.0 | 4.8 | 0.05 | 0.81 | 0.81 | 85 | 1011.7 |
| 20260505140642 | 18 | 6 | 0.0 | 6.4 | 0.00 | 0.76 | 0.76 | 77 | 1011.8 |
| 20260505130142 | 18 | 170 | 3.2 | 12.9 | 0.00 | 0.76 | 0.76 | 76 | 1012.3 |
| 20260505124642 | 18 | 235 | 1.6 | 6.4 | 0.00 | 0.76 | 0.76 | 74 | 1012.7 |
| 20260505123639 | 18 | 112 | 0.0 | 11.3 | 0.00 | 0.76 | 0.76 | 76 | 1012.9 |
| 20260505123142 | 18 | 136 | 1.6 | 6.4 | 0.00 | 0.76 | 0.76 | 75 | 1013.0 |
| 20260505122640 | 18 | 220 | 1.6 | 11.3 | 0.00 | 0.76 | 0.76 | 75 | 1013.0 |
| 20260505122140 | 18 | 55 | 4.8 | 11.3 | 0.00 | 0.76 | 0.76 | 75 | 1013.1 |
| 20260505121644 | 18 | 162 | 6.4 | 11.3 | 0.00 | 0.76 | 0.76 | 74 | 1013.1 |
| 20260505120631 | 18 | 220 | 4.8 | 17.7 | 0.00 | 0.76 | 0.76 | 76 | 1013.0 |
| 20260505120129 | 18 | 166 | 1.6 | 9.7 | 0.00 | 0.76 | 0.76 | 75 | 1013.0 |
| 20260505115619 | 18 | 161 | 1.6 | 17.7 | 0.00 | 0.76 | 0.76 | 79 | 1012.9 |
| 20260505115116 | 17 | 158 | 4.8 | 17.7 | 0.00 | 0.76 | 0.76 | 79 | 1013.0 |
| 20260505114107 | 17 | 203 | 3.2 | 14.5 | 0.00 | 0.76 | 0.76 | 79 | 1013.3 |
| 20260505113110 | 17 | 81 | 1.6 | 9.7 | 0.00 | 0.76 | 0.76 | 79 | 1013.3 |
| 20260505112554 | 17 | 156 | 1.6 | 9.7 | 0.00 | 0.76 | 0.76 | 79 | 1013.2 |
| 20260505112058 | 17 | 137 | 1.6 | 9.7 | 0.00 | 0.76 | 0.76 | 80 | 1013.3 |
| 20260505111553 | 17 | 119 | 4.8 | 6.4 | 0.00 | 0.76 | 0.76 | 78 | 1013.5 |
| 20260505111054 | 17 | 76 | 3.2 | 6.4 | 0.00 | 0.76 | 0.76 | 81 | 1013.2 |
| 20260505110556 | 16 | 222 | 1.6 | 9.7 | 0.00 | 0.76 | 0.76 | 83 | 1013.2 |
| 20260505102056 | 15 | 156 | 3.2 | 12.9 | 0.00 | 0.76 | 0.76 | 83 | 1013.5 |
| 20260505101554 | 15 | 224 | 1.6 | 6.4 | 0.00 | 0.76 | 0.76 | 83 | 1013.6 |
| 20260505101055 | 15 | 142 | 3.2 | 6.4 | 0.00 | 0.76 | 0.76 | 82 | 1013.5 |
| 20260505100558 | 15 | 261 | 3.2 | 6.4 | 0.00 | 0.76 | 0.76 | 82 | 1013.6 |
| 20260505100059 | 15 | 356 | 0.0 | 4.8 | 0.00 | 0.76 | 0.76 | 83 | 1013.3 |
| 20260505095552 | 15 | 87 | 0.0 | 17.7 | 0.00 | 0.76 | 0.76 | 83 | 1013.4 |
| 20260505095040 | 15 | 167 | 3.2 | 17.7 | 0.00 | 0.76 | 0.76 | 83 | 1013.3 |
| 20260505094044 | 15 | 158 | 0.0 | 6.4 | 0.00 | 0.76 | 0.76 | 83 | 1013.4 |
| 20260505093039 | 15 | 167 | 4.8 | 9.7 | 0.00 | 0.76 | 0.76 | 83 | 1013.6 |
| 20260505092542 | 15 | 137 | 3.2 | 9.7 | 0.00 | 0.76 | 0.76 | 83 | 1013.5 |
| 20260505092041 | 15 | 220 | 1.6 | 6.4 | 0.00 | 0.76 | 0.76 | 83 | 1013.6 |
| 20260505091541 | 15 | 313 | 0.0 | 4.8 | 0.00 | 0.76 | 0.76 | 85 | 1013.5 |
| 20260505091042 | 15 | 144 | 0.0 | 4.8 | 0.00 | 0.76 | 0.76 | 84 | 1013.3 |
| 20260505090539 | 15 | 222 | 0.0 | 4.8 | 0.00 | 0.76 | 0.76 | 84 | 1013.5 |
| 20260505090040 | 14 | 228 | 1.6 | 6.4 | 0.00 | 0.76 | 0.76 | 85 | 1013.6 |
| 20260505085542 | 14 | 306 | 0.0 | 6.4 | 0.00 | 0.76 | 0.76 | 86 | 1013.4 |
| 20260505085040 | 14 | 211 | 1.6 | 9.7 | 0.00 | 0.76 | 0.76 | 85 | 1013.7 |
| 20260505084540 | 14 | 248 | 1.6 | 9.7 | 0.00 | 0.76 | 0.76 | 84 | 1013.5 |
| 20260505084042 | 14 | 214 | 0.0 | 9.7 | 0.00 | 0.76 | 0.76 | 85 | 1013.5 |
| 20260505083528 | 14 | 221 | 3.2 | 4.8 | 0.00 | 0.76 | 0.76 | 85 | 1013.6 |
| 20260505082528 | 14 | 223 | 3.2 | 6.4 | 0.00 | 0.76 | 0.76 | 86 | 1013.4 |
| 20260505082017 | 14 | 237 | 0.0 | 4.8 | 0.00 | 0.76 | 0.76 | 86 | 1013.6 |
| 20260505081516 | 14 | 168 | 1.6 | 6.4 | 0.00 | 0.76 | 0.76 | 85 | 1013.3 |
| 20260505081017 | 13 | 202 | 0.0 | 6.4 | 0.00 | 0.76 | 0.76 | 86 | 1013.3 |
| 20260505080504 | 13 | 186 | 0.0 | 3.2 | 0.00 | 0.76 | 0.76 | 86 | 1013.3 |
| 20260505075507 | 13 | 207 | 0.0 | 3.2 | 0.00 | 0.76 | 0.76 | 86 | 1013.6 |
| 20260505074454 | 13 | 159 | 0.0 | 6.4 | 0.00 | 0.76 | 0.76 | 86 | 1013.6 |
| 20260505073952 | 13 | 243 | 1.6 | 11.3 | 0.00 | 0.76 | 0.76 | 86 | 1013.5 |
| 20260505072954 | 13 | 256 | 1.6 | 9.7 | 0.00 | 0.76 | 0.76 | 86 | 1013.4 |
| 20260505072452 | 13 | 206 | 0.0 | 11.3 | 0.00 | 0.76 | 0.76 | 86 | 1013.4 |
| 20260505071951 | 13 | 245 | 3.2 | 11.3 | 0.03 | 0.76 | 0.76 | 86 | 1013.5 |
| 20260505071454 | 13 | 242 | 1.6 | 9.7 | 0.03 | 0.76 | 0.76 | 86 | 1013.5 |
| 20260505070952 | 13 | 129 | 0.0 | 9.7 | 0.03 | 0.76 | 0.76 | 86 | 1013.6 |
| 20260505065954 | 13 | 137 | 1.6 | 6.4 | 0.03 | 0.76 | 0.76 | 87 | 1013.3 |
| 20260505065455 | 13 | 60 | 0.0 | 4.8 | 0.03 | 0.76 | 0.76 | 88 | 1013.5 |
| 20260505064953 | 13 | 266 | 3.2 | 4.8 | 0.03 | 0.76 | 0.76 | 87 | 1013.6 |
| 20260505064454 | 13 | 239 | 1.6 | 4.8 | 0.03 | 0.76 | 0.76 | 88 | 1013.7 |
| 20260505063952 | 13 | 150 | 1.6 | 4.8 | 0.03 | 0.76 | 0.76 | 88 | 1013.6 |
| 20260505063453 | 13 | 152 | 1.6 | 4.8 | 0.03 | 0.76 | 0.76 | 88 | 1013.4 |
| 20260505062955 | 13 | 90 | 3.2 | 9.7 | 0.05 | 0.76 | 0.76 | 87 | 1013.5 |
| 20260505062452 | 13 | 222 | 1.6 | 9.7 | 0.08 | 0.76 | 0.76 | 88 | 1013.4 |
| 20260505061953 | 12 | 279 | 3.2 | 11.3 | 0.10 | 0.74 | 0.74 | 88 | 1013.4 |
| 20260505061443 | 12 | 148 | 0.0 | 11.3 | 0.13 | 0.74 | 0.74 | 88 | 1013.6 |
| 20260505060939 | 12 | 227 | 0.0 | 4.8 | 0.15 | 0.74 | 0.74 | 88 | 1013.4 |
| 20260505060441 | 12 | 99 | 3.2 | 6.4 | 0.15 | 0.74 | 0.74 | 88 | 1013.7 |
| 20260505055940 | 12 | 166 | 0.0 | 9.7 | 0.15 | 0.74 | 0.74 | 89 | 1013.5 |
| 20260505055442 | 12 | 142 | 3.2 | 9.7 | 0.15 | 0.74 | 0.74 | 89 | 1013.3 |
| 20260505054943 | 12 | 127 | 0.0 | 6.4 | 0.18 | 0.74 | 0.74 | 89 | 1013.4 |
| 20260505053943 | 12 | 229 | 1.6 | 9.7 | 0.18 | 0.74 | 0.74 | 89 | 1013.2 |
| 20260505053442 | 12 | 226 | 0.0 | 9.7 | 0.20 | 0.74 | 0.74 | 90 | 1013.4 |
| 20260505052940 | 12 | 187 | 0.0 | 9.7 | 0.18 | 0.71 | 0.71 | 90 | 1013.3 |